Time,TemperatureF,DewpointF,PressureIn,WindDirection,WindDirectionDegrees,WindSpeedMPH,WindSpeedGustMPH,Humidity,HourlyPrecipIn,Conditions,Clouds,dailyrainin,SoftwareType,DateUTC
2013-06-14 00:02:00,73.0,-99.9,29.99,ESE,115,13.0,13.0,-999,-99.99,,,-99.99,,2013-06-14 05:02:00,
2013-06-14 00:12:00,73.0,-99.9,29.99,ESE,112,11.0,16.0,-999,-99.99,,,-99.99,,2013-06-14 05:12:00,
2013-06-14 00:22:00,73.0,-99.9,29.99,ESE,116,11.0,15.0,-999,-99.99,,,-99.99,,2013-06-14 05:22:00,
2013-06-14 00:34:00,73.0,-99.9,30.00,SE,130,9.0,15.0,-999,-99.99,,,-99.99,,2013-06-14 05:34:00,
2013-06-14 00:43:00,73.0,-99.9,30.01,SSE,150,7.0,16.0,-999,-99.99,,,-99.99,,2013-06-14 05:43:00,
2013-06-14 00:52:00,73.0,-99.9,30.01,SE,137,8.0,13.0,-999,-99.99,,,-99.99,,2013-06-14 05:52:00,
2013-06-14 01:02:00,72.0,-99.9,30.01,SE,142,8.0,10.0,-999,-99.99,,,-99.99,,2013-06-14 06:02:00,
2013-06-14 01:23:00,72.0,-99.9,30.01,SE,142,8.0,13.0,-999,-99.99,,,-99.99,,2013-06-14 06:23:00,
2013-06-14 02:02:00,71.0,-99.9,30.03,SE,139,8.0,16.0,-999,-99.99,,,-99.99,,2013-06-14 07:02:00,
2013-06-14 06:11:00,68.0,-99.9,30.09,North,358,0.0,0.0,-999,-99.99,,,-99.99,,2013-06-14 11:11:00,
2013-06-14 13:52:00,85.0,-99.9,30.10,North,4,6.0,12.0,-999,-99.99,,,-99.99,,2013-06-14 18:52:00,
2013-06-14 14:02:00,85.0,-99.9,30.10,North,2,6.0,11.0,-999,-99.99,,,-99.99,,2013-06-14 19:02:00,
2013-06-14 15:02:00,85.0,-99.9,30.09,NW,306,0.0,8.0,-999,-99.99,,,-99.99,,2013-06-14 20:02:00,
2013-06-14 15:22:00,85.0,-99.9,30.09,NW,324,3.0,6.0,-999,-99.99,,,-99.99,,2013-06-14 20:22:00,
2013-06-14 15:53:00,85.0,-99.9,30.07,NW,322,3.0,5.0,-999,-99.99,,,-99.99,,2013-06-14 20:53:00,
2013-06-14 16:02:00,85.0,-99.9,30.06,WNW,303,0.0,7.0,-999,-99.99,,,-99.99,,2013-06-14 21:02:00,
2013-06-14 16:12:00,85.0,-99.9,30.05,NW,306,0.0,6.0,-999,-99.99,,,-99.99,,2013-06-14 21:12:00,
2013-06-14 16:22:00,85.0,-99.9,30.04,West,264,2.0,3.0,-999,-99.99,,,-99.99,,2013-06-14 21:22:00,
2013-06-14 16:34:00,85.0,-99.9,30.04,West,275,0.0,4.0,-999,-99.99,,,-99.99,,2013-06-14 21:34:00,
2013-06-14 16:43:00,84.0,-99.9,30.03,North,352,0.0,3.0,-999,-99.99,,,-99.99,,2013-06-14 21:43:00,
2013-06-14 16:52:00,84.0,-99.9,30.02,North,352,0.0,0.0,-999,-99.99,,,-99.99,,2013-06-14 21:52:00,
2013-06-14 17:02:00,84.0,-99.9,30.01,North,352,0.0,0.0,-999,-99.99,,,-99.99,,2013-06-14 22:02:00,
2013-06-14 17:12:00,84.0,-99.9,30.01,North,352,0.0,0.0,-999,-99.99,,,-99.99,,2013-06-14 22:12:00,
2013-06-14 17:22:00,83.0,-99.9,29.99,East,95,6.0,9.0,-999,-99.99,,,-99.99,,2013-06-14 22:22:00,
2013-06-14 17:33:00,83.0,-99.9,29.98,ESE,115,0.0,7.0,-999,-99.99,,,-99.99,,2013-06-14 22:33:00,
2013-06-14 17:43:00,83.0,-99.9,29.98,ESE,115,0.0,7.0,-999,-99.99,,,-99.99,,2013-06-14 22:43:00,
2013-06-14 17:53:00,83.0,-99.9,29.97,South,175,8.0,9.0,-999,-99.99,,,-99.99,,2013-06-14 22:53:00,
2013-06-14 18:02:00,82.0,-99.9,29.98,SE,139,6.0,12.0,-999,-99.99,,,-99.99,,2013-06-14 23:02:00,
2013-06-14 18:12:00,82.0,-99.9,29.98,SE,139,7.0,13.0,-999,-99.99,,,-99.99,,2013-06-14 23:12:00,
2013-06-14 18:22:00,82.0,-99.9,29.98,SE,127,10.0,12.0,-999,-99.99,,,-99.99,,2013-06-14 23:22:00,
2013-06-14 18:33:00,82.0,-99.9,29.98,SE,125,6.0,12.0,-999,-99.99,,,-99.99,,2013-06-14 23:33:00,
2013-06-14 18:43:00,81.0,-99.9,29.99,SSE,149,0.0,8.0,-999,-99.99,,,-99.99,,2013-06-14 23:43:00,
2013-06-14 18:52:00,81.0,-99.9,30.00,SE,130,0.0,8.0,-999,-99.99,,,-99.99,,2013-06-14 23:52:00,
2013-06-14 19:02:00,81.0,-99.9,30.00,SE,146,0.0,7.0,-999,-99.99,,,-99.99,,2013-06-15 00:02:00,
2013-06-14 19:12:00,81.0,-99.9,30.01,SSE,158,0.0,3.0,-999,-99.99,,,-99.99,,2013-06-15 00:12:00,
2013-06-14 19:23:00,81.0,-99.9,30.01,ESE,106,0.0,0.0,-999,-99.99,,,-99.99,,2013-06-15 00:23:00,
2013-06-14 19:34:00,80.0,-99.9,30.01,SSE,161,0.0,0.0,-999,-99.99,,,-99.99,,2013-06-15 00:34:00,
2013-06-14 19:43:00,80.0,-99.9,30.01,SSE,161,0.0,0.0,-999,-99.99,,,-99.99,,2013-06-15 00:43:00,
2013-06-14 19:53:00,80.0,-99.9,30.01,SSE,161,0.0,0.0,-999,-99.99,,,-99.99,,2013-06-15 00:53:00,
2013-06-14 20:02:00,79.0,-99.9,30.01,SSE,161,0.0,0.0,-999,-99.99,,,-99.99,,2013-06-15 01:02:00,
2013-06-14 20:11:00,79.0,-99.9,30.01,SSE,161,0.0,0.0,-999,-99.99,,,-99.99,,2013-06-15 01:11:00,
2013-06-14 20:22:00,79.0,-99.9,30.01,SSE,161,0.0,0.0,-999,-99.99,,,-99.99,,2013-06-15 01:22:00,
2013-06-14 20:33:00,78.0,-99.9,30.01,SSE,161,0.0,0.0,-999,-99.99,,,-99.99,,2013-06-15 01:33:00,
2013-06-14 20:43:00,78.0,-99.9,30.00,SSE,161,0.0,0.0,-999,-99.99,,,-99.99,,2013-06-15 01:43:00,
2013-06-14 20:54:00,77.0,-99.9,30.01,SSE,161,0.0,0.0,-999,-99.99,,,-99.99,,2013-06-15 01:54:00,
2013-06-14 21:02:00,77.0,-99.9,30.02,SSE,161,0.0,0.0,-999,-99.99,,,-99.99,,2013-06-15 02:02:00,
2013-06-14 21:12:00,76.0,-99.9,30.01,SSE,161,0.0,0.0,-999,-99.99,,,-99.99,,2013-06-15 02:12:00,
2013-06-14 21:23:00,76.0,-99.9,30.01,SSE,161,0.0,0.0,-999,-99.99,,,-99.99,,2013-06-15 02:23:00,
2013-06-14 21:34:00,76.0,-99.9,30.02,SSE,161,0.0,0.0,-999,-99.99,,,-99.99,,2013-06-15 02:34:00,
2013-06-14 21:43:00,76.0,-99.9,30.02,SSE,161,0.0,0.0,-999,-99.99,,,-99.99,,2013-06-15 02:43:00,
2013-06-14 21:53:00,75.0,-99.9,30.03,SSE,161,0.0,0.0,-999,-99.99,,,-99.99,,2013-06-15 02:53:00,
2013-06-14 22:02:00,75.0,-99.9,30.03,NE,50,0.0,0.0,-999,-99.99,,,-99.99,,2013-06-15 03:02:00,
2013-06-14 22:11:00,75.0,-99.9,30.03,NE,50,0.0,0.0,-999,-99.99,,,-99.99,,2013-06-15 03:11:00,
2013-06-14 22:24:00,75.0,-99.9,30.01,NE,50,0.0,0.0,-999,-99.99,,,-99.99,,2013-06-15 03:24:00,
2013-06-14 22:33:00,75.0,-99.9,30.01,South,170,4.0,5.0,-999,-99.99,,,-99.99,,2013-06-15 03:33:00,
2013-06-14 22:44:00,75.0,-99.9,30.00,South,191,5.0,6.0,-999,-99.99,,,-99.99,,2013-06-15 03:44:00,
2013-06-14 22:53:00,74.0,-99.9,29.99,SSE,151,4.0,5.0,-999,-99.99,,,-99.99,,2013-06-15 03:53:00,
2013-06-14 23:02:00,74.0,-99.9,29.99,SSE,157,0.0,6.0,-999,-99.99,,,-99.99,,2013-06-15 04:02:00,
2013-06-14 23:12:00,74.0,-99.9,29.99,SSE,157,0.0,0.0,-999,-99.99,,,-99.99,,2013-06-15 04:12:00,
2013-06-14 23:22:00,74.0,-99.9,29.98,SSE,157,0.0,0.0,-999,-99.99,,,-99.99,,2013-06-15 04:22:00,
2013-06-14 23:34:00,74.0,-99.9,29.99,South,181,3.0,4.0,-999,-99.99,,,-99.99,,2013-06-15 04:34:00,
2013-06-14 23:43:00,74.0,-99.9,29.99,SE,136,3.0,5.0,-999,-99.99,,,-99.99,,2013-06-15 04:43:00,
2013-06-14 23:54:00,74.0,-99.9,29.99,SSW,202,0.0,5.0,-999,-99.99,,,-99.99,,2013-06-15 04:54:00,